{"data":{"norad_id":66291,"intl_designator":"2025-247AC","name":"STARLINK-35800","alt_names":[],"object_type":"PAYLOAD","status":"ACTIVE","operator":null,"country":"US","launch_date":"2025-10-31","launch_site_code":"AFWTR","launch_vehicle":null,"mission":null,"orbit_class":"UNKNOWN","rcs_meters":null,"size_class":null,"mass_kg":null,"dimensions":null,"purposes":["comms"],"wikipedia_slug":null,"has_3d_model":false,"image_url":null,"decayed_at":null,"tle_current":{"epoch":"2026-05-24T20:44:13.462080Z","epoch_age_seconds":80741,"freshness":"FRESH","line1":"1 66291U 25247AC  26144.86404470  .00020121  00000+0  60509-3 0  9992","line2":"2 66291  53.1588 196.3857 0000927  77.7973 282.3133 15.34398288 32753","mean_motion":15.34398288,"eccentricity":9.27e-5,"inclination_deg":53.1588,"raan_deg":196.3857,"arg_perigee_deg":77.7973,"mean_anomaly_deg":282.3133,"bstar":0.00060509,"rev_number":3275,"period_min":93.847862791672,"perigee_km":462.07418227466,"apogee_km":463.34247499859,"semimajor_km":6840.8453286366,"source":"CELESTRAK","updated_at":"2026-05-25T13:38:21.165729Z"}}}